Wind_Speed
19 17 14 17 16 15 14 12 11 11 11 10 10 12 14 13 13 12 11 12 11 10 11 12 17 19 18 15 12 9 7 7 6 7 8 10 12 11 9 4 4 5 5
16 16 19 19 16 16 14 13 11 11 10 10 10 12 14 13 13 11 10 9 9 10 12 15 18 19 18 16 14 12 9 12 10 10 10 10 13 12 14 12 11 10 4
18 21 20 18 15 16 14 13 11 11 11 10 11 13 14 14 14 12 12 12 10 12 14 16 17 16 16 14 14 15 15 12 12 15 12 13 12 11 14 12 10 10 9
20 21 18 17 16 14 13 13 14 14 13 13 13 13 13 12 11 10 9 10 11 12 13 16 16 15 15 15 15 14 16 17 14 13 12 12 12 11 11 11 10 10 8
18 20 18 15 15 15 15 17 17 16 16 13 12 12 11 10 8 7 8 10 11 12 14 15 15 15 14 14 13 15 14 14 13 11 10 10 11 11 9 9 8 8 8
18 18 17 16 17 19 20 21 17 16 15 14 14 12 10 10 9 8 8 10 12 13 13 14 15 14 14 13 12 13 12 12 10 10 10 10 8 8 8 8 6 6 5
18 18 18 19 22 22 20 17 16 16 14 14 14 15 15 13 12 11 11 12 13 15 15 14 15 14 13 13 14 14 14 12 12 10 10 7 8 8 7 5 5 5 5
19 20 20 22 22 19 17 17 16 14 15 15 14 14 14 13 13 13 13 12 13 13 13 14 15 16 15 14 13 13 12 12 11 11 10 11 11 9 8 7 6 4 3
18 20 22 22 20 18 16 16 15 15 14 12 12 14 16 15 14 13 12 12 14 12 12 12 13 13 12 11 10 11 10 10 9 9 10 12 9 7 7 6 5 5 4
17 20 22 21 18 16 16 14 15 14 12 13 13 15 17 16 14 12 11 10 12 13 10 8 8 8 8 8 9 7 6 6 4 3 5 5 5 6 5 6 5 6 7
16 19 19 18 16 16 15 15 17 13 12 14 16 17 13 14 11 12 9 9 9 10 8 7 8 7 7 8 7 7 6 7 6 6 6 7 8 8 9 7 8 8 9
17 19 18 16 15 15 14 16 14 14 16 16 15 15 10 11 11 10 11 11 10 7 7 7 8 8 9 9 10 9 9 12 13 12 11 11 11 11 14 12 10 9 12
18 18 17 15 13 14 15 15 12 15 16 16 16 11 11 14 11 12 12 10 9 9 8 9 11 12 13 15 17 16 15 12 11 13 14 17 18 16 17 19 17 15 17
18 17 14 12 12 14 17 15 12 16 17 16 11 10 11 8 8 11 12 9 10 9 9 11 14 14 15 17 16 14 13 13 16 19 18 17 20 20 22 24 22 22 22
18 17 14 11 13 14 15 13 14 16 16 15 13 10 9 11 5 9 10 12 10 10 11 13 15 15 16 14 15 17 19 17 18 18 23 17 22 19 21 24 21 20 17
17 15 12 11 11 13 12 11 14 15 16 15 13 7 8 10 10 7 10 9 10 11 12 13 16 15 13 15 18 20 21 23 25 27 28 21 20 19 20 20 20 19 22
15 13 10 10 8 10 9 9 13 14 15 14 11 9 11 8 7 10 12 8 7 8 12 13 13 13 15 17 18 18 21 24 27 28 30 22 18 18 19 20 20 23 23
9 10 10 8 7 6 4 8 9 10 13 13 10 9 8 5 6 7 7 4 7 9 10 10 12 14 15 16 17 21 24 26 28 27 24 20 17 19 21 21 20 22 23
9 9 9 8 6 2 4 4 6 10 12 11 9 9 7 4 3 2 2 4 7 8 10 11 12 13 15 17 22 24 25 23 22 20 22 20 19 22 20 24 23 24 25
8 8 7 6 3 2 2 4 8 10 11 10 9 9 7 4 3 4 5 8 8 11 12 14 17 19 20 23 24 24 27 32 27 20 16 18 17 18 23 25 24 26 25
7 7 5 4 3 4 3 4 5 7 7 9 10 10 8 6 8 8 9 9 10 13 15 17 18 22 24 26 28 30 31 38 35 13 19 17 16 18 20 27 28 28 29
7 6 5 6 7 8 6 4 4 3 4 6 7 8 8 7 8 10 11 13 14 16 18 20 20 21 25 28 30 31 35 39 27 10 16 19 24 19 20 26 28 31 32
9 8 7 8 8 7 5 5 5 5 6 8 8 9 8 8 9 11 13 14 16 17 18 20 21 22 24 26 28 30 31 33 32 36 18 26 27 23 22 28 29 31 33
4 4 5 6 6 6 5 6 7 8 8 9 9 7 7 8 9 11 13 13 15 16 18 20 21 21 21 24 26 27 28 28 27 28 28 29 30 29 23 26 31 31 32
4 5 5 4 4 5 5 6 7 8 9 10 10 9 9 10 10 10 11 12 14 16 17 20 21 21 21 23 26 28 29 28 31 37 38 33 30 32 23 25 30 31 32
6 7 8 7 6 5 6 7 8 10 12 13 12 12 12 13 13 14 15 15 16 17 18 21 24 25 25 24 27 28 29 29 30 36 33 42 35 36 30 41 25 31 33
Wind_Direction
123 129 113 121 123 119 113 112 105 97 89 90 86 79 74 76 73 70 72 76 75 67 65 62 72 91 97 88 92 100 85 96 96 88 77 74 84 85 88 97 85 84 162
124 126 126 120 125 119 117 113 104 96 93 82 77 74 78 74 70 75 75 70 68 60 57 62 77 92 91 92 95 91 84 84 113 95 93 87 80 75 79 88 89 80 91
131 126 124 127 122 118 111 101 99 95 89 85 79 80 79 76 74 75 71 66 62 62 65 74 83 88 91 86 81 82 85 109 110 116 108 94 93 90 91 87 87 77 57
139 132 130 131 125 115 108 101 95 98 101 98 94 89 84 83 79 73 72 81 78 77 82 87 95 95 96 93 91 84 81 87 98 101 94 94 91 84 83 83 71 61 63
138 132 126 128 118 110 98 97 100 106 103 98 88 78 74 71 71 68 72 77 79 86 91 93 97 99 95 87 82 80 73 78 83 87 83 72 67 64 60 69 66 59 63
130 124 125 122 110 101 102 101 106 101 95 85 75 75 77 78 69 66 71 77 80 83 86 91 92 94 90 85 73 76 75 77 84 80 68 62 58 58 52 53 47 38 39
130 127 121 110 104 104 106 109 106 97 90 79 70 64 61 60 66 70 68 64 72 81 87 87 84 80 83 86 85 79 78 78 61 59 57 53 44 34 28 22 26 20 11
122 121 113 105 107 109 109 102 94 87 77 72 69 70 74 80 78 79 74 77 76 74 81 83 83 84 82 70 59 57 58 56 53 44 36 37 36 36 33 22 7 2 345
118 117 113 111 110 106 100 91 88 82 77 73 71 69 70 69 75 80 87 82 75 70 76 85 88 85 74 66 60 60 53 43 35 38 27 26 18 15 17 358 344 321 307
122 122 117 114 109 104 95 91 83 77 76 70 67 65 60 73 69 56 59 75 88 87 86 73 79 80 80 72 69 68 40 23 34 12 22 5 348 327 305 296 302 290 304
130 122 118 113 108 98 90 77 75 76 70 69 65 63 65 71 73 68 68 74 74 83 90 82 81 63 60 59 54 33 26 12 351 355 333 320 318 312 302 305 313 293 300
127 124 120 115 107 99 91 76 76 70 61 63 65 59 73 84 68 80 64 71 83 44 56 61 50 44 37 18 20 19 3 354 350 344 334 328 324 315 311 309 303 297 288
131 123 122 119 113 100 87 83 75 69 60 60 55 55 67 61 59 76 58 59 61 48 38 46 45 38 35 25 20 13 7 351 347 351 347 342 335 319 311 318 314 307 313
127 125 114 115 116 96 81 73 62 68 65 62 69 61 51 51 68 64 66 64 49 39 39 44 44 36 29 21 20 13 358 355 348 347 338 328 314 311 318 322 316 316 316
126 122 120 121 97 88 78 71 59 62 62 64 56 57 60 39 54 49 53 58 43 23 31 29 34 28 26 20 15 10 2 351 337 329 315 312 323 307 304 304 311 312 305
131 131 127 108 97 90 70 54 57 62 56 55 58 45 47 33 51 64 65 48 41 21 32 27 29 24 17 20 15 5 352 342 334 326 322 323 327 325 320 310 311 305 305
137 131 125 115 98 80 64 42 45 46 48 51 52 42 33 33 33 51 40 33 35 26 32 25 27 23 19 12 7 2 349 344 340 341 345 342 328 329 323 321 316 310 307
144 138 131 126 106 88 69 42 48 47 47 37 36 57 52 53 46 41 46 26 30 18 19 18 22 15 14 6 2 1 352 345 343 343 348 328 325 329 327 323 319 309 305
145 155 153 157 138 137 65 39 30 45 45 40 28 48 55 29 84 37 351 356 6 9 1 356 10 12 6 2 2 357 346 346 333 343 345 332 326 321 326 329 325 317 314
155 166 173 179 179 278 6 9 10 29 27 28 30 48 44 36 9 1 349 6 337 344 349 351 354 358 357 1 358 349 340 329 337 331 351 344 312 306 325 323 326 325 322
174 182 203 233 253 279 320 345 347 23 19 15 14 29 36 3 346 357 352 359 344 344 342 346 350 351 350 351 353 347 347 336 338 325 346 336 338 318 326 332 332 324 325
196 205 226 245 260 275 285 298 303 18 3 8 16 12 20 6 351 345 348 348 346 346 342 342 346 340 342 347 348 346 351 359 353 302 350 351 353 340 337 336 330 323 321
236 219 229 248 261 271 275 282 297 339 339 346 4 2 360 356 354 346 346 345 341 340 339 334 338 335 340 339 341 343 354 2 6 347 310 339 358 353 340 335 332 328 323
256 273 271 269 262 275 293 312 330 329 330 347 347 350 348 352 355 349 345 341 333 330 332 330 327 327 336 330 333 340 347 342 348 355 342 338 359 360 347 338 333 329 324
279 283 275 253 263 279 288 300 310 316 327 341 347 352 348 345 343 337 333 331 330 326 325 324 325 325 332 328 329 337 343 342 340 339 344 346 3 0 347 336 334 331 327
265 273 274 275 279 286 296 313 320 328 333 334 338 340 339 334 330 334 335 329 324 324 327 325 325 326 326 329 330 335 338 338 338 342 326 340 358 1 352 337 348 333 327
Height
5879 5879 5880 5882 5885 5885 5886 5887 5889 5889 5889 5890 5889 5889 5889 5888 5888 5887 5886 5887 5887 5887 5886 5884 5882 5881 5882 5883 5884 5885 5885 5884 5884 5884 5884 5884 5884 5884 5883 5884 5884 5883 5884
5880 5881 5883 5885 5888 5888 5889 5890 5891 5891 5892 5892 5892 5891 5890 5890 5890 5889 5890 5889 5889 5889 5889 5888 5886 5885 5885 5886 5887 5886 5885 5885 5885 5885 5886 5885 5885 5884 5883 5883 5884 5884 5884
5882 5883 5885 5889 5890 5890 5892 5894 5895 5895 5895 5896 5895 5893 5892 5892 5892 5892 5892 5891 5892 5891 5890 5891 5889 5888 5888 5887 5887 5888 5886 5886 5887 5888 5888 5888 5887 5886 5884 5885 5885 5884 5884
5886 5887 5889 5892 5892 5894 5896 5896 5898 5898 5898 5897 5896 5895 5894 5894 5893 5893 5892 5893 5893 5892 5892 5891 5890 5889 5888 5888 5888 5889 5889 5889 5889 5890 5890 5889 5889 5889 5889 5888 5888 5887 5886
5889 5891 5893 5895 5896 5897 5898 5899 5900 5900 5898 5898 5899 5899 5898 5898 5897 5896 5895 5895 5894 5894 5894 5893 5892 5891 5890 5891 5890 5891 5891 5891 5891 5891 5890 5890 5890 5889 5888 5888 5887 5887 5887
5893 5894 5897 5897 5898 5899 5902 5902 5903 5902 5902 5903 5903 5902 5902 5901 5900 5899 5898 5898 5898 5897 5895 5895 5895 5894 5894 5893 5893 5893 5893 5893 5892 5892 5892 5892 5891 5890 5888 5887 5887 5887 5887
5896 5898 5898 5899 5900 5903 5904 5904 5905 5906 5906 5907 5907 5906 5905 5903 5902 5902 5902 5902 5901 5900 5898 5897 5897 5897 5896 5894 5894 5894 5895 5895 5896 5894 5894 5892 5892 5891 5890 5890 5889 5887 5886
5899 5900 5901 5903 5906 5906 5907 5908 5909 5910 5911 5910 5909 5907 5905 5903 5903 5903 5903 5902 5903 5902 5900 5899 5898 5897 5898 5898 5897 5897 5896 5896 5896 5896 5893 5893 5891 5890 5889 5888 5887 5886 5885
5903 5904 5906 5909 5909 5909 5911 5913 5913 5914 5912 5911 5911 5910 5909 5908 5907 5906 5905 5903 5903 5904 5904 5902 5901 5900 5900 5900 5899 5899 5898 5897 5895 5894 5894 5893 5891 5890 5888 5887 5887 5885 5884
5907 5909 5911 5912 5911 5913 5915 5915 5917 5916 5915 5916 5914 5913 5912 5911 5911 5911 5910 5908 5906 5906 5906 5905 5904 5904 5903 5903 5903 5901 5900 5898 5896 5894 5894 5893 5890 5889 5886 5887 5887 5886 5884
5910 5913 5914 5914 5915 5917 5918 5919 5920 5918 5918 5917 5916 5915 5914 5913 5912 5912 5913 5912 5911 5908 5908 5907 5906 5906 5905 5904 5902 5901 5899 5898 5897 5896 5893 5891 5890 5889 5887 5886 5884 5883 5882
5913 5916 5917 5917 5918 5920 5921 5922 5922 5921 5920 5918 5918 5916 5914 5914 5914 5913 5913 5914 5914 5912 5910 5909 5908 5907 5905 5904 5902 5901 5901 5899 5898 5895 5893 5891 5888 5886 5885 5883 5881 5880 5880
5917 5918 5919 5919 5919 5922 5923 5924 5923 5923 5921 5920 5921 5918 5916 5917 5917 5916 5915 5915 5914 5913 5912 5910 5908 5907 5905 5903 5901 5900 5899 5896 5894 5893 5891 5889 5886 5884 5882 5880 5878 5877 5875
5918 5921 5921 5921 5922 5923 5925 5925 5925 5924 5922 5921 5921 5921 5919 5919 5918 5917 5917 5916 5914 5914 5914 5913 5911 5910 5907 5905 5902 5897 5895 5893 5890 5887 5884 5882 5880 5879 5877 5875 5873 5871 5870
5920 5921 5922 5923 5924 5925 5926 5926 5927 5925 5924 5923 5923 5922 5921 5920 5919 5920 5919 5916 5917 5918 5915 5912 5911 5909 5907 5905 5902 5899 5896 5893 5888 5885 5880 5877 5875 5873 5871 5869 5868 5866 5863
5922 5922 5924 5924 5925 5927 5927 5927 5928 5926 5925 5925 5925 5922 5922 5921 5920 5920 5919 5917 5917 5917 5916 5914 5911 5910 5907 5904 5902 5899 5895 5891 5888 5882 5879 5874 5871 5869 5865 5864 5862 5859 5858
5922 5922 5924 5925 5926 5927 5928 5928 5926 5925 5925 5926 5926 5924 5922 5922 5922 5920 5919 5919 5918 5917 5915 5914 5913 5910 5908 5904 5903 5901 5895 5892 5887 5881 5876 5872 5869 5866 5863 5861 5858 5856 5852
5924 5924 5925 5926 5927 5928 5930 5928 5928 5928 5927 5926 5926 5925 5924 5924 5923 5920 5920 5920 5918 5917 5916 5915 5912 5910 5907 5906 5904 5899 5894 5889 5884 5878 5873 5868 5865 5863 5862 5857 5853 5850 5846
5925 5925 5926 5926 5928 5929 5930 5929 5929 5929 5929 5928 5927 5926 5925 5924 5923 5922 5921 5919 5918 5917 5916 5913 5911 5910 5908 5906 5900 5897 5893 5884 5880 5876 5870 5866 5861 5859 5857 5853 5848 5842 5838
5926 5927 5927 5928 5929 5930 5930 5931 5931 5929 5929 5929 5928 5927 5925 5925 5924 5922 5921 5918 5916 5916 5913 5910 5907 5905 5902 5900 5899 5895 5890 5883 5876 5870 5868 5865 5858 5855 5853 5848 5842 5836 5831
5926 5927 5928 5929 5929 5930 5931 5931 5930 5930 5929 5928 5927 5927 5926 5925 5924 5921 5920 5918 5915 5912 5909 5908 5906 5902 5899 5897 5895 5891 5887 5877 5870 5868 5865 5864 5858 5853 5848 5842 5836 5830 5825
5926 5926 5927 5928 5928 5929 5929 5929 5929 5928 5928 5927 5926 5926 5925 5925 5923 5921 5918 5916 5914 5911 5909 5906 5903 5900 5899 5897 5893 5889 5884 5877 5870 5866 5864 5860 5854 5849 5844 5839 5832 5827 5820
5926 5926 5926 5928 5928 5927 5928 5928 5928 5927 5927 5926 5925 5924 5924 5923 5921 5919 5916 5914 5911 5910 5908 5906 5903 5902 5900 5895 5891 5888 5883 5877 5872 5868 5861 5856 5852 5844 5840 5835 5829 5822 5815
5924 5924 5926 5927 5926 5926 5926 5927 5928 5928 5927 5926 5925 5925 5924 5923 5920 5918 5916 5914 5912 5910 5908 5905 5902 5900 5898 5892 5889 5886 5881 5877 5873 5866 5861 5853 5846 5840 5834 5831 5824 5817 5809
5923 5923 5924 5925 5925 5925 5925 5925 5925 5926 5925 5925 5925 5924 5922 5921 5920 5918 5916 5914 5913 5910 5907 5904 5901 5899 5896 5891 5886 5882 5878 5873 5868 5862 5855 5847 5840 5835 5830 5824 5818 5810 5801
5922 5923 5923 5923 5924 5924 5924 5923 5924 5924 5924 5924 5923 5923 5921 5920 5919 5917 5915 5913 5911 5909 5906 5903 5899 5896 5893 5890 5885 5879 5874 5869 5863 5858 5852 5844 5837 5832 5826 5819 5812 5803 5794